Regional Weather Roundup
Issued by NWS

Home | Current Version | Previous Version | Text Only | Print | Product List | Glossary Off
Versions: 1 2 3 4 5 6 7 8 9 10 11 12 13 14 15 16 17 18 19 20 21 22 23 24 25 26 27 28 29 30 31 32 33 34 35 36 37 38 39 40 41 42 43 44 45 46 47 48 49 50

000
ASUS43 KBIS 221110
RWRND
NORTH DAKOTA REGIONAL WEATHER ROUNDUP
NATIONAL WEATHER SERVICE EASTERN NORTH DAKOTA/GRAND FORKS ND
600 AM CDT MON MAY 22 2017

  NOTE: "FAIR" INDICATES FEW OR NO CLOUDS BELOW 12,000 FEET WITH NO
  SIGNIFICANT WEATHER AND/OR OBSTRUCTIONS TO VISIBILITY.

NDZ001>003-009>011-017-221200-
...NORTHWEST NORTH DAKOTA...

CITY           SKY/WX    TMP DP  RH WIND       PRES   REMARKS
WILLISTON      FAIR      49  39  68 N14       29.97R
MINOT          CLOUDY    47  40  76 N6        29.92S
MINOT AFB      CLOUDY    48  42  79 N5        29.92R
$$

NDZ018>021-031>035-040>046-221200-
...SOUTHWEST NORTH DAKOTA...

CITY           SKY/WX    TMP DP  RH WIND       PRES   REMARKS
BISMARCK       CLOUDY    45  38  76 NE3       29.89S
DICKINSON      MOCLDY    45  40  82 W12       29.93S
GARRISON         N/A     44  38  79 NW6       29.91S
HETTINGER      FAIR      46  42  86 W14       29.97F
$$

NDZ004>008-012>016-024-026-027-054-221200-
...NORTHEAST NORTH DAKOTA...

CITY           SKY/WX    TMP DP  RH WIND       PRES   REMARKS
GRAND FORKS    CLOUDY    47  44  90 W10       29.83F
GRAND FORKS AF FAIR      47  42  82 NW9       29.84F
DEVILS LAKE    MOCLDY    45  41  86 NW8       29.89F
$$

NDZ022-023-025-028>030-036>039-047>053-221200-
...SOUTHEAST NORTH DAKOTA...

CITY           SKY/WX    TMP DP  RH WIND       PRES   REMARKS
JAMESTOWN      CLOUDY    42  40  92 N6        29.87F
FARGO          FAIR      45  42  89 NW9       29.85F
WAHPETON       PTSUNNY   39  36  87 W5        29.87S
$$



USA.gov is the U.S. government's official web portal to all federal, state and local government web resources and services.